PRAETORIAN SDA_615

Last updated on Sun Jun 21 2026 00:03:46 GMT+0000 (Coordinated Universal Time)

1 65578U 25203P 26171.48127051 .00000073 00000+0 54653-4 0 9994 2 65578 81.3023 7.5066 0009079 176.2694 183.8532 13.84436424 39162
UTC large
Height (km)
Speed (km/s)
/
Latitude / Longitude
Inclination (degrees)
Orbital Period (minutes)
Azimuth
Elevation
Range (km)
Doppler Factor

Next 0 passes for location: London (51.5072 / 0.1276)

No passes found over London.
PRAETORIAN SDA_615